Cloud_Cover
8 85 9 28 60 77 27 62 100 100 100 100 100 100 100 100 100 100 95 78 40 6 58 98 100 81 85 100 100 100 4 55 2 6 66 73 18 22 18 18 68 97 99 79 99 100 93
70 50 31 33 100 100 100 100 100 100 100 100 100 100 100 100 100 99 66 18 56 56 95 100 100 100 100 100 100 100 76 19 60 17 70 100 100 100 93 100 99 33 83 100 100 100 100
43 100 99 100 88 100 82 59 30 100 100 100 100 100 100 100 100 100 66 87 96 100 100 100 100 100 100 100 100 100 100 98 78 19 100 99 97 100 100 100 100 100 99 100 100 100 100
40 53 85 88 91 100 72 33 48 99 100 100 100 100 100 100 100 97 100 100 100 100 100 100 100 100 100 100 100 100 100 100 99 21 21 71 24 100 85 100 100 94 100 100 100 100 100
100 100 100 100 100 100 100 100 100 98 90 88 100 100 100 100 100 100 100 100 100 100 98 100 100 100 100 100 100 100 100 99 5 92 100 100 100 100 100 100 100 93 43 15 89 82 48
100 100 100 100 100 100 100 100 100 100 100 100 100 100 100 100 100 100 100 100 99 92 65 98 100 100 100 97 100 100 100 79 32 66 51 100 85 100 100 100 87 56 18 75 82 30 7
100 100 100 100 100 100 100 100 100 100 100 100 100 100 100 100 100 100 100 96 76 89 100 100 75 99 100 98 100 100 100 100 100 98 100 23 39 100 100 43 88 100 13 38 85 99 100
100 100 100 100 100 100 100 100 100 100 100 100 100 100 100 100 100 100 100 100 100 100 100 99 87 62 100 98 72 100 100 100 100 100 100 98 90 100 90 96 86 93 74 100 100 100 93
100 100 100 100 100 100 100 100 100 100 100 100 100 100 100 100 100 100 100 100 100 100 100 80 98 95 99 60 68 100 68 38 91 100 100 98 94 98 83 44 94 65 63 82 78 100 99
100 100 100 100 100 100 100 100 100 100 100 100 100 100 100 100 100 100 100 100 100 100 100 44 22 63 95 92 91 100 100 39 98 100 100 65 99 90 100 43 100 100 100 88 100 98 98
100 100 100 100 100 100 100 100 100 100 100 100 100 100 100 100 100 100 100 100 100 100 100 8 5 5 5 95 98 24 100 99 8 32 100 11 80 100 99 100 100 100 100 100 100 100 100
100 100 100 100 100 100 100 100 100 100 100 100 100 100 100 100 100 100 100 100 100 100 100 46 7 8 46 40 95 100 100 100 100 100 100 63 100 100 100 100 100 100 100 100 100 100 99
100 100 100 100 100 100 100 100 100 100 100 100 100 100 100 100 100 100 100 100 100 100 100 100 100 100 65 94 98 100 100 100 100 100 100 100 100 100 100 100 100 100 100 100 100 100 90
100 100 100 100 100 100 100 100 100 100 100 100 100 100 100 100 100 100 100 100 100 100 100 100 100 100 100 100 100 100 100 100 100 100 100 100 100 100 100 100 100 100 100 100 100 100 100
100 100 100 100 100 100 100 100 100 100 100 100 100 100 100 100 100 100 100 100 100 100 100 100 100 100 100 100 100 100 100 100 100 100 100 100 100 100 100 100 100 100 100 100 100 100 100
4 4 5 58 67 100 100 100 100 100 100 100 100 100 100 100 100 100 100 100 100 100 100 100 100 100 100 100 100 100 100 100 100 100 100 100 100 100 100 100 100 100 100 100 100 100 100
77 46 5 5 5 6 90 99 100 100 100 100 100 100 100 100 100 100 100 100 100 100 100 100 100 100 100 100 100 100 100 100 100 100 100 100 100 100 100 100 100 100 100 100 100 100 100
5 6 7 7 65 66 26 52 100 100 100 100 100 100 100 100 100 100 100 100 100 100 100 100 100 100 100 100 100 100 100 100 100 100 100 100 100 100 100 100 100 100 100 100 100 100 100
9 5 5 4 3 4 73 7 36 46 61 85 100 100 100 100 100 100 100 100 100 100 100 100 100 100 100 100 100 100 100 100 100 100 100 100 100 100 100 100 100 100 100 100 100 100 100
5 5 5 5 5 5 5 21 5 4 91 23 38 44 44 83 83 94 86 100 96 91 100 100 100 100 100 100 100 100 100 100 100 100 100 100 100 100 100 100 100 100 100 100 100 100 100
87 100 71 28 5 14 5 5 2 0 9 99 81 66 39 28 42 13 25 36 28 5 91 78 58 75 97 94 92 100 92 96 99 100 100 54 100 100 100 100 100 100 100 100 100 74 68
100 100 100 100 97 39 14 5 12 2 46 100 91 89 17 6 8 98 80 6 5 5 18 0 40 5 55 100 90 12 26 72 51 94 100 100 52 98 100 99 100 100 100 100 100 100 100
100 100 77 56 63 51 70 74 98 100 92 100 98 27 93 18 33 91 5 39 18 99 81 5 16 86 38 83 98 99 99 88 67 31 43 74 73 5 4 7 5 3 4 26 100 100 100
5 5 5 6 5 5 30 5 14 99 100 53 71 100 100 68 80 59 100 100 100 84 82 24 100 100 100 96 100 100 100 100 84 100 84 5 4 15 4 3 74 0 0 12 96 100 100
5 5 5 5 5 5 5 5 5 88 100 100 85 100 100 46 100 87 92 95 96 84 99 99 100 100 100 100 100 100 100 100 86 84 100 4 1 5 90 4 9 0 76 21 73 4 10
5 5 5 5 5 5 42 100 100 100 100 100 100 100 100 100 22 84 100 100 97 74 100 100 100 100 100 100 100 100 95 81 100 100 100 91 22 99 100 100 98 68 5 68 75 28 5
5 5 5 7 14 60 98 99 100 100 100 100 100 100 100 100 100 100 100 100 100 100 100 100 100 100 100 84 85 100 75 53 81 91 6 100 100 100 97 100 100 100 13 80 100 41 9
5 5 5 21 5 90 98 100 99 95 100 100 100 100 100 99 100 100 100 100 100 100 90 98 98 100 78 97 90 94 49 100 98 100 100 100 100 100 100 100 100 100 100 68 19 95 99
5 5 5 100 100 38 9 77 100 100 100 84 77 97 87 100 97 93 100 100 100 100 93 100 91 52 100 100 100 100 100 100 100 100 100 100 84 100 100 100 100 100 54 84 66 8 74